Total_Precipitation_Accumulation
1.73 1.83 1.84 1.32 1.05 0.94 0.95 0.92 0.87 0.84 0.82 0.87 0.96 1.05 0.99 0.99 1.01 1.08 1.17 1.40 1.48 1.58 1.83 1.99 2.02 1.91 1.76 1.63 1.57 1.41 1.21 1.25 1.34 1.37 1.37 1.42 1.49 1.76 2.15 1.98 1.82 1.35 1.25
1.31 1.41 1.56 1.21 0.91 0.86 0.84 0.84 0.81 0.79 0.77 0.75 0.82 0.97 1.02 1.14 1.20 1.22 1.30 1.49 1.63 1.90 1.97 1.96 1.88 1.65 1.60 1.44 1.33 1.26 1.20 1.30 1.42 1.47 1.40 1.30 1.55 1.90 2.14 1.96 1.98 1.31 1.24
0.97 1.03 1.05 1.04 0.85 0.76 0.78 0.81 0.80 0.79 0.75 0.68 0.73 0.91 1.08 1.30 1.44 1.43 1.42 1.67 1.96 2.02 1.96 1.90 1.59 1.36 1.31 1.18 1.14 1.16 1.21 1.32 1.45 1.68 1.74 1.31 1.25 1.88 1.95 1.80 1.48 1.09 1.11
0.76 0.79 0.73 0.80 0.78 0.72 0.72 0.70 0.70 0.72 0.71 0.70 0.78 0.93 1.09 1.23 1.38 1.47 1.54 1.80 2.00 1.91 1.87 1.60 1.32 1.16 1.08 0.97 0.98 1.02 1.14 1.35 1.64 2.02 2.06 1.59 1.02 1.46 1.72 1.53 1.26 1.05 1.00
0.67 0.65 0.77 0.78 0.71 0.68 0.64 0.66 0.67 0.70 0.71 0.73 0.81 0.91 1.04 1.22 1.41 1.53 1.53 1.72 1.74 1.62 1.53 1.38 1.24 1.05 0.93 0.85 0.87 0.96 1.14 1.44 1.67 1.92 1.79 1.69 1.46 1.50 1.53 1.43 1.27 1.19 1.09
0.67 0.64 0.74 0.77 0.70 0.71 0.64 0.60 0.63 0.66 0.71 0.75 0.87 0.97 1.06 1.28 1.40 1.43 1.50 1.67 1.59 1.52 1.43 1.32 1.14 0.94 0.82 0.77 0.82 0.91 1.11 1.44 1.48 1.28 1.29 1.39 1.29 1.39 1.40 1.50 1.38 1.22 1.11
0.88 0.85 0.80 0.82 0.79 0.73 0.62 0.57 0.60 0.63 0.71 0.75 0.86 0.96 1.02 1.17 1.23 1.32 1.49 1.58 1.46 1.39 1.26 1.16 1.03 0.86 0.85 0.88 0.88 0.89 1.16 1.43 1.27 1.09 1.15 1.48 1.33 1.13 1.37 1.60 1.55 1.34 1.13
0.95 0.98 0.93 0.96 0.92 0.85 0.70 0.63 0.66 0.71 0.77 0.80 0.83 0.89 0.95 1.02 1.06 1.22 1.47 1.52 1.36 1.16 1.08 1.07 1.00 0.89 0.88 0.94 0.88 0.91 1.14 1.25 0.99 1.04 0.99 1.12 1.02 1.06 1.33 1.55 1.56 1.43 1.25
1.12 1.07 1.03 1.00 0.88 0.90 0.88 0.76 0.77 0.87 0.90 0.86 0.85 0.89 0.90 0.96 1.06 1.23 1.50 1.53 1.31 1.08 0.99 0.98 0.97 0.90 0.84 0.91 0.96 1.05 1.25 1.41 1.20 1.25 0.94 1.05 1.01 1.19 1.44 1.56 1.59 1.53 1.46
1.51 1.29 1.16 1.20 1.18 1.04 0.98 0.91 0.98 1.05 1.07 1.05 0.98 1.02 1.07 1.16 1.23 1.44 1.58 1.49 1.29 1.11 0.98 0.93 0.94 0.87 0.87 0.90 0.98 1.20 1.48 1.37 1.02 1.11 1.14 0.99 1.08 1.42 1.75 1.69 1.72 1.75 1.71
1.87 1.63 1.38 1.26 1.23 1.15 1.08 1.12 1.38 1.38 1.32 1.29 1.31 1.35 1.40 1.61 1.77 1.99 1.77 1.62 1.44 1.30 1.25 1.20 1.21 1.13 1.05 0.98 1.16 1.44 1.42 1.22 1.27 1.36 1.31 1.09 1.30 1.71 2.02 1.96 1.92 1.92 1.90
2.04 1.71 1.63 1.50 1.35 1.25 1.10 1.22 1.63 1.51 1.46 1.58 1.71 1.65 1.88 2.25 2.53 2.21 2.06 2.00 1.95 1.90 1.80 1.83 1.90 1.55 1.30 1.42 1.92 1.98 1.38 1.33 1.50 1.54 1.45 1.37 1.67 2.11 2.35 2.32 2.28 2.11 2.06
2.25 1.90 1.79 1.66 1.57 1.57 1.67 1.48 1.61 1.73 1.83 1.91 1.95 2.05 2.24 2.29 2.43 2.43 2.39 2.42 2.46 2.32 2.20 2.42 2.40 1.88 1.96 2.36 2.47 2.21 1.67 1.61 1.76 1.69 1.76 1.83 1.92 2.43 2.90 2.80 2.71 2.48 2.30
2.49 2.18 1.97 1.81 1.82 1.89 1.84 1.80 1.72 1.82 1.85 2.04 2.24 2.26 2.49 2.83 2.89 2.87 2.81 2.67 2.72 2.76 2.98 2.97 3.06 2.61 2.60 2.44 2.32 2.29 2.11 2.17 2.06 2.24 2.61 2.35 2.14 2.49 3.21 3.29 3.16 2.88 2.46
2.64 2.31 2.26 2.00 1.93 1.99 2.15 2.26 2.01 2.23 2.24 2.32 2.53 2.69 2.81 3.10 3.13 3.08 2.98 2.96 2.70 2.83 3.02 3.38 3.26 3.45 3.42 3.02 2.58 2.43 2.46 2.53 2.46 2.56 2.84 2.84 2.67 2.75 3.53 3.98 3.82 3.47 2.98
2.61 2.41 2.34 2.21 2.26 2.35 2.38 2.48 2.58 2.72 2.80 2.76 2.78 2.90 2.97 3.15 3.42 3.39 3.24 3.19 2.91 2.85 3.14 3.46 3.45 3.94 3.82 3.64 3.11 2.79 2.64 2.61 2.59 2.71 3.01 3.18 3.11 3.06 3.52 4.08 4.29 4.17 3.71
2.39 2.46 2.58 2.70 2.90 2.99 3.01 2.99 2.95 3.05 3.07 3.21 3.49 3.57 3.57 3.45 3.55 3.44 3.38 3.23 3.18 3.16 3.35 3.44 3.57 3.98 3.73 3.67 3.49 3.18 2.95 2.74 2.60 2.82 3.21 3.52 3.17 3.10 3.48 3.97 4.38 4.35 4.16
2.40 2.51 2.74 2.82 3.22 3.40 3.48 3.58 3.49 3.43 3.43 3.68 3.87 4.02 3.95 3.75 3.57 3.64 3.40 3.18 3.32 3.32 3.54 3.84 3.84 3.93 4.04 3.96 3.75 3.42 3.28 3.16 2.71 2.77 2.95 3.12 3.33 2.89 3.31 3.96 4.25 4.00 4.02
2.77 3.03 3.36 3.45 3.42 3.53 3.73 3.90 3.68 3.63 3.59 3.57 3.63 3.84 3.77 3.50 3.36 3.69 3.51 3.51 3.53 3.73 3.67 3.38 3.95 4.15 4.14 4.05 3.50 3.43 3.07 3.04 2.95 2.71 2.82 2.89 3.10 3.06 3.12 3.27 3.84 3.64 3.83
3.12 3.51 3.74 3.78 4.01 4.32 4.53 4.43 4.17 3.76 3.47 3.36 3.37 3.41 3.38 3.35 3.25 3.57 3.37 3.39 3.61 3.99 4.09 3.99 4.24 4.17 4.03 4.10 3.44 3.24 2.93 2.64 2.65 2.59 2.42 2.68 2.76 2.49 2.69 2.93 3.33 2.84 3.08
3.16 3.39 3.71 4.15 4.52 4.63 4.45 4.37 4.29 4.02 3.68 3.32 3.08 3.04 3.16 3.05 3.14 3.52 3.21 3.64 3.72 3.92 4.09 4.06 4.29 4.23 4.01 4.13 4.08 3.51 2.89 2.49 2.41 2.25 2.26 2.47 2.40 2.46 2.77 3.21 3.46 3.35 2.96
2.99 3.27 3.70 4.17 4.50 4.39 4.50 4.71 4.65 4.43 3.73 3.35 3.19 3.14 3.07 2.98 2.96 3.08 3.61 3.60 3.72 3.93 3.99 3.96 4.05 3.86 3.59 3.94 4.23 4.06 3.34 2.88 2.46 2.03 2.25 2.26 2.40 2.68 2.69 2.75 3.17 3.53 3.33
3.00 3.45 3.78 4.08 4.22 4.23 4.44 4.58 4.30 4.08 3.58 3.43 3.42 3.28 3.12 3.08 3.06 3.20 3.47 3.56 3.63 3.53 3.76 3.95 3.76 3.72 3.61 3.66 3.91 4.13 3.64 3.05 2.55 2.23 2.10 2.14 2.50 2.75 2.62 2.57 2.54 2.79 2.87
2.98 3.56 3.97 4.00 4.07 3.94 4.05 4.16 4.01 3.67 3.41 3.32 3.31 3.08 2.96 2.89 2.88 2.99 3.15 3.34 3.50 3.42 3.58 3.45 3.49 3.64 3.65 3.49 3.64 3.59 3.48 3.28 3.10 2.66 2.25 2.13 2.35 2.46 2.43 2.23 2.25 2.58 2.75
2.69 3.08 3.50 3.87 3.93 3.72 3.65 3.70 3.84 3.68 3.40 3.19 3.09 3.01 2.94 2.91 2.72 2.69 2.91 3.15 3.30 3.19 3.14 3.34 3.62 3.55 3.43 3.39 3.52 3.57 3.74 3.57 3.24 3.07 2.68 2.43 2.27 2.02 2.10 2.14 2.14 2.26 2.49
2.48 2.82 3.10 3.35 3.34 3.26 3.21 3.25 3.37 3.46 3.43 3.19 2.98 3.02 2.97 2.82 2.66 2.60 2.69 3.02 3.12 3.06 3.01 3.10 3.18 3.21 3.23 3.39 3.39 3.30 3.51 3.53 3.36 3.38 3.00 2.65 2.36 1.91 1.85 1.93 2.04 2.17 2.30